This is the latest recevied weather packets stored in our database for station/object WB4ZUT. If no packets are shown the sender has not sent any weather packets the latest 10 day(s).
| Time | Temp. | Humidity | Pressure | Rain* | Wind** | Luminosity | Snow |
|---|---|---|---|---|---|---|---|
| 1777320649 | 24.44° C | 78% | 1008.3 hPa | 0 mm | - | 108 W/m² | - |
| 1777320346 | 24.44° C | 78% | 1008.4 hPa | 0 mm | - | 122 W/m² | - |
| 1777320042 | 24.44° C | 78% | 1008.5 hPa | 0 mm | - | 80 W/m² | - |
| 1777319739 | 24.44° C | 77% | 1008.8 hPa | 0 mm | - | 83 W/m² | - |
| 1777319436 | 24.44° C | 77% | 1008.8 hPa | 0 mm | - | 83 W/m² | - |
| 1777319133 | 24.44° C | 77% | 1008.7 hPa | 0 mm | - | 89 W/m² | - |
| 1777318831 | 24.44° C | 77% | 1008.8 hPa | 0 mm | - | 145 W/m² | - |
| 1777318527 | 24.44° C | 78% | 1009 hPa | 0 mm | - | 200 W/m² | - |
| 1777318224 | 23.89° C | 79% | 1009.4 hPa | 0 mm | - | 284 W/m² | - |
| 1777317920 | 23.89° C | 80% | 1008.7 hPa | 0 mm | - | 348 W/m² | - |
| 1777317617 | 22.78° C | 83% | 1009 hPa | 0 mm | - | 352 W/m² | - |
| 1777317315 | 22.78° C | 84% | 1009 hPa | 0 mm | - | 204 W/m² | - |
| 1777317009 | 22.22° C | 84% | 1009.2 hPa | 0 mm | - | 269 W/m² | - |
| 1777316708 | 21.67° C | 86% | 1009.2 hPa | 0 mm | - | 436 W/m² | - |
| 1777316403 | 21.67° C | 86% | 1009 hPa | 0 mm | - | 463 W/m² | - |
| 1777316101 | 21.11° C | 87% | 1009.4 hPa | 0 mm | - | 291 W/m² | - |
| 1777315799 | 20.56° C | 88% | 1009.4 hPa | 0 mm | - | 206 W/m² | - |
| 1777315497 | 20.56° C | 88% | 1009.3 hPa | 0 mm | - | 228 W/m² | - |
| 1777315195 | 20.56° C | 88% | 1009.5 hPa | 0 mm | - | 406 W/m² | - |
| 1777314891 | 20° C | 89% | 1009.6 hPa | 0 mm | - | 322 W/m² | - |
| 1777314587 | 20° C | 89% | 1009.5 hPa | 0 mm | - | 332 W/m² | - |
| 1777314284 | 19.44° C | 90% | 1009.6 hPa | 0 mm | - | 338 W/m² | - |
| 1777313981 | 19.44° C | 92% | 1009.9 hPa | 0 mm | - | 386 W/m² | - |
| 1777313678 | 18.89° C | 93% | 1009.9 hPa | 0 mm | - | 379 W/m² | - |
| 1777313376 | 18.89° C | 93% | 1010.2 hPa | 1.27 mm | - | 345 W/m² | - |
* Rain latest hour (hover to see other rain measurements)
** Current wind speed in m/s (hover to see current wind gust speed)